Погода в Чертовищах

Россия / Ивановская область     57°17′52″N   41°52′34″E
темп.,
°C
ветер,
м/с
пор.,
м/с
влажн.,
%
обл.,
%
осадки,
мм/ч
давл.,
гПа
погр.,
м
18 апреля, вс
вс1800:00+4всв39861 0.0 1025200
03:00+3всв39890 0.0 1025174
06:00+2всв39875 0.0 1025223
09:00+8всв59641 0.0 1025606
12:00+11всв68495 0.0 10241562
15:00+12всв684564 0.0 10251932
18:00+8всв6107471 0.0 1026751
21:00+5всв6127962 0.0 1027618
19 апреля, пн
пн1900:00+3всв5117675 0.0 1028563
03:00+2всв51169100 0.0 1029467
06:00+1всв51272100 0.0 1029505
09:00+3в61061100 0.0 1030769
12:00+6в71050100 0.0 10291360
15:00+8в7939100 0.0 10291670
18:00+6в61042100 0.0 10291335
21:00+4в51351100 0.0 1029584
20 апреля, вт
вт2000:00+2в5135799 0.0 1030553
03:00+1в51360100 0.0 1029503
06:000в5136397 0.0 1029521
09:00+4вюв7125342 0.0 1028703
12:00+9вюв7104649 0.0 10281355
15:00+10вюв7104555 0.0 10261594
18:00+9вюв7114628 0.0 10241219
21:00+6вюв71547100 0.0 1024748
21 апреля, ср
ср2100:00+4вюв7165085 0.0 1021789
03:00+4вюв81751100 0.0 1018889
06:00+2вюв92082100 0.7 10161059
09:00+1вюв91896100 3.6 1014832
12:00+2вюв91790100 0.4 1013831
15:00+3юв91791100 0.4 1012850
18:00+4юв91792100 0.5 1011920
21:00+5ююв81494100 0.8 10121003
22 апреля, чт
чт2200:00+6ююв71387100 0.3 10131017
03:00+5ю71482100 0.5 10141155
06:00+5ю61284100 0.1 1016906
09:00+7ююз7128082 0.2 10181167
12:00+7ююз5107890 0.1 10201232
15:00+10юз486869 0.3 10211272
18:00+9зюз2370100 0.2 102379
21:00+6ююв228282 0.2 102425